owner,sensor,date,latitude,longitude,mass_concentration_of_chlorophyll_in_sea_water,qcFlag 
LUMCON,ioos:station:LUMCON:101:1,2019-11-01T00:00:00Z,29.2533,-90.6633,20.75,11111222 
LUMCON,ioos:station:LUMCON:101:1,2019-11-01T00:15:00Z,29.2533,-90.6633,23.04,11111222 
LUMCON,ioos:station:LUMCON:101:1,2019-11-01T00:30:00Z,29.2533,-90.6633,17.85,11111222 
LUMCON,ioos:station:LUMCON:101:1,2019-11-01T00:45:00Z,29.2533,-90.6633,20.22,11111222 
LUMCON,ioos:station:LUMCON:101:1,2019-11-01T01:00:00Z,29.2533,-90.6633,23.76,11111222 
LUMCON,ioos:station:LUMCON:101:1,2019-11-01T01:15:00Z,29.2533,-90.6633,24.49,11111222 
LUMCON,ioos:station:LUMCON:101:1,2019-11-01T01:30:00Z,29.2533,-90.6633,27.65,11111222 
LUMCON,ioos:station:LUMCON:101:1,2019-11-01T01:45:00Z,29.2533,-90.6633,25.0,11111222 
LUMCON,ioos:station:LUMCON:101:1,2019-11-01T02:00:00Z,29.2533,-90.6633,22.12,11111222 
LUMCON,ioos:station:LUMCON:101:1,2019-11-01T02:15:00Z,29.2533,-90.6633,20.31,11111222 
LUMCON,ioos:station:LUMCON:101:1,2019-11-01T02:30:00Z,29.2533,-90.6633,21.54,11111222 
LUMCON,ioos:station:LUMCON:101:1,2019-11-01T02:45:00Z,29.2533,-90.6633,22.98,11111222 
LUMCON,ioos:station:LUMCON:101:1,2019-11-01T03:00:00Z,29.2533,-90.6633,17.55,11111222 
LUMCON,ioos:station:LUMCON:101:1,2019-11-01T03:15:00Z,29.2533,-90.6633,19.61,11111222 
LUMCON,ioos:station:LUMCON:101:1,2019-11-01T03:30:00Z,29.2533,-90.6633,23.02,11111222 
LUMCON,ioos:station:LUMCON:101:1,2019-11-01T03:45:00Z,29.2533,-90.6633,23.8,11111222 
LUMCON,ioos:station:LUMCON:101:1,2019-11-01T04:00:00Z,29.2533,-90.6633,24.69,11111222 
LUMCON,ioos:station:LUMCON:101:1,2019-11-01T04:15:00Z,29.2533,-90.6633,23.67,11111222 
LUMCON,ioos:station:LUMCON:101:1,2019-11-01T04:30:00Z,29.2533,-90.6633,23.67,11111222 
LUMCON,ioos:station:LUMCON:101:1,2019-11-01T04:45:00Z,29.2533,-90.6633,20.9,11111222 
LUMCON,ioos:station:LUMCON:101:1,2019-11-01T05:00:00Z,29.2533,-90.6633,19.68,11111222 
LUMCON,ioos:station:LUMCON:101:1,2019-11-01T05:15:00Z,29.2533,-90.6633,17.32,11111222 
LUMCON,ioos:station:LUMCON:101:1,2019-11-01T05:30:00Z,29.2533,-90.6633,17.49,11111222 
LUMCON,ioos:station:LUMCON:101:1,2019-11-01T05:45:00Z,29.2533,-90.6633,18.4,11111222 
LUMCON,ioos:station:LUMCON:101:1,2019-11-01T06:00:00Z,29.2533,-90.6633,16.07,11111222 
LUMCON,ioos:station:LUMCON:101:1,2019-11-01T06:15:00Z,29.2533,-90.6633,16.29,11111222 
LUMCON,ioos:station:LUMCON:101:1,2019-11-01T06:30:00Z,29.2533,-90.6633,17.43,11111222 
LUMCON,ioos:station:LUMCON:101:1,2019-11-01T06:45:00Z,29.2533,-90.6633,16.05,11111222 
LUMCON,ioos:station:LUMCON:101:1,2019-11-01T07:00:00Z,29.2533,-90.6633,17.33,11111222 
LUMCON,ioos:station:LUMCON:101:1,2019-11-01T07:15:00Z,29.2533,-90.6633,16.14,11111222 
LUMCON,ioos:station:LUMCON:101:1,2019-11-01T07:30:00Z,29.2533,-90.6633,16.51,11111222 
LUMCON,ioos:station:LUMCON:101:1,2019-11-01T07:45:00Z,29.2533,-90.6633,16.58,11111222 
LUMCON,ioos:station:LUMCON:101:1,2019-11-01T08:00:00Z,29.2533,-90.6633,16.67,11111222 
LUMCON,ioos:station:LUMCON:101:1,2019-11-01T08:15:00Z,29.2533,-90.6633,16.77,11111222 
LUMCON,ioos:station:LUMCON:101:1,2019-11-01T08:30:00Z,29.2533,-90.6633,18.86,11111222 
LUMCON,ioos:station:LUMCON:101:1,2019-11-01T08:45:00Z,29.2533,-90.6633,18.16,11111222 
LUMCON,ioos:station:LUMCON:101:1,2019-11-01T09:00:00Z,29.2533,-90.6633,16.25,11111222 
LUMCON,ioos:station:LUMCON:101:1,2019-11-01T09:15:00Z,29.2533,-90.6633,18.38,11111222 
LUMCON,ioos:station:LUMCON:101:1,2019-11-01T09:30:00Z,29.2533,-90.6633,16.98,11111222 
LUMCON,ioos:station:LUMCON:101:1,2019-11-01T09:45:00Z,29.2533,-90.6633,15.41,11111222 
LUMCON,ioos:station:LUMCON:101:1,2019-11-01T10:00:00Z,29.2533,-90.6633,15.66,11111222 
LUMCON,ioos:station:LUMCON:101:1,2019-11-01T10:15:00Z,29.2533,-90.6633,16.18,11111222 
LUMCON,ioos:station:LUMCON:101:1,2019-11-01T10:30:00Z,29.2533,-90.6633,16.71,11111222 
LUMCON,ioos:station:LUMCON:101:1,2019-11-01T10:45:00Z,29.2533,-90.6633,16.34,11111222 
LUMCON,ioos:station:LUMCON:101:1,2019-11-01T11:00:00Z,29.2533,-90.6633,15.64,11111222 
LUMCON,ioos:station:LUMCON:101:1,2019-11-01T11:15:00Z,29.2533,-90.6633,18.06,11111222 
LUMCON,ioos:station:LUMCON:101:1,2019-11-01T11:30:00Z,29.2533,-90.6633,16.09,11111222 
LUMCON,ioos:station:LUMCON:101:1,2019-11-01T11:45:00Z,29.2533,-90.6633,15.05,11111222 
LUMCON,ioos:station:LUMCON:101:1,2019-11-01T12:00:00Z,29.2533,-90.6633,13.78,11111222 
LUMCON,ioos:station:LUMCON:101:1,2019-11-01T12:15:00Z,29.2533,-90.6633,13.16,11111222 
LUMCON,ioos:station:LUMCON:101:1,2019-11-01T12:30:00Z,29.2533,-90.6633,12.44,11111222 
LUMCON,ioos:station:LUMCON:101:1,2019-11-01T12:45:00Z,29.2533,-90.6633,12.08,11111222 
LUMCON,ioos:station:LUMCON:101:1,2019-11-01T13:00:00Z,29.2533,-90.6633,12.2,11111222 
LUMCON,ioos:station:LUMCON:101:1,2019-11-01T13:15:00Z,29.2533,-90.6633,12.42,11111222 
LUMCON,ioos:station:LUMCON:101:1,2019-11-01T13:30:00Z,29.2533,-90.6633,12.85,11111222 
LUMCON,ioos:station:LUMCON:101:1,2019-11-01T13:45:00Z,29.2533,-90.6633,12.93,11111222 
LUMCON,ioos:station:LUMCON:101:1,2019-11-01T14:00:00Z,29.2533,-90.6633,12.61,11111222 
LUMCON,ioos:station:LUMCON:101:1,2019-11-01T14:15:00Z,29.2533,-90.6633,12.8,11111222 
LUMCON,ioos:station:LUMCON:101:1,2019-11-01T14:30:00Z,29.2533,-90.6633,13.12,11111222 
LUMCON,ioos:station:LUMCON:101:1,2019-11-01T14:45:00Z,29.2533,-90.6633,13.09,11111222 
LUMCON,ioos:station:LUMCON:101:1,2019-11-01T15:00:00Z,29.2533,-90.6633,12.95,11111222 
LUMCON,ioos:station:LUMCON:101:1,2019-11-01T15:15:00Z,29.2533,-90.6633,12.75,11111222 
LUMCON,ioos:station:LUMCON:101:1,2019-11-01T15:30:00Z,29.2533,-90.6633,12.76,11111222 
LUMCON,ioos:station:LUMCON:101:1,2019-11-01T15:45:00Z,29.2533,-90.6633,12.73,11111222 
LUMCON,ioos:station:LUMCON:101:1,2019-11-01T16:00:00Z,29.2533,-90.6633,12.87,11111222 
LUMCON,ioos:station:LUMCON:101:1,2019-11-01T16:15:00Z,29.2533,-90.6633,12.69,11111222 
LUMCON,ioos:station:LUMCON:101:1,2019-11-01T16:30:00Z,29.2533,-90.6633,12.79,11111222 
LUMCON,ioos:station:LUMCON:101:1,2019-11-01T16:45:00Z,29.2533,-90.6633,12.92,11111222 
LUMCON,ioos:station:LUMCON:101:1,2019-11-01T17:00:00Z,29.2533,-90.6633,13.07,11111222 
LUMCON,ioos:station:LUMCON:101:1,2019-11-01T17:15:00Z,29.2533,-90.6633,12.92,11111222 
LUMCON,ioos:station:LUMCON:101:1,2019-11-01T17:30:00Z,29.2533,-90.6633,13.38,11111222 
LUMCON,ioos:station:LUMCON:101:1,2019-11-01T17:45:00Z,29.2533,-90.6633,13.32,11111222 
LUMCON,ioos:station:LUMCON:101:1,2019-11-01T18:00:00Z,29.2533,-90.6633,13.83,11111222 
LUMCON,ioos:station:LUMCON:101:1,2019-11-01T18:15:00Z,29.2533,-90.6633,14.13,11111222 
LUMCON,ioos:station:LUMCON:101:1,2019-11-01T18:30:00Z,29.2533,-90.6633,14.18,11111222 
LUMCON,ioos:station:LUMCON:101:1,2019-11-01T18:45:00Z,29.2533,-90.6633,14.4,11111222 
LUMCON,ioos:station:LUMCON:101:1,2019-11-01T19:00:00Z,29.2533,-90.6633,14.27,11111222 
LUMCON,ioos:station:LUMCON:101:1,2019-11-01T19:15:00Z,29.2533,-90.6633,14.97,11111222 
LUMCON,ioos:station:LUMCON:101:1,2019-11-01T19:30:00Z,29.2533,-90.6633,15.96,11111222 
LUMCON,ioos:station:LUMCON:101:1,2019-11-01T19:45:00Z,29.2533,-90.6633,17.25,11111222 
LUMCON,ioos:station:LUMCON:101:1,2019-11-01T20:00:00Z,29.2533,-90.6633,17.2,11111222 
LUMCON,ioos:station:LUMCON:101:1,2019-11-01T20:15:00Z,29.2533,-90.6633,16.57,11111222 
LUMCON,ioos:station:LUMCON:101:1,2019-11-01T20:30:00Z,29.2533,-90.6633,15.27,11111222 
LUMCON,ioos:station:LUMCON:101:1,2019-11-01T20:45:00Z,29.2533,-90.6633,15.68,11111222 
LUMCON,ioos:station:LUMCON:101:1,2019-11-01T21:00:00Z,29.2533,-90.6633,18.35,11111222 
LUMCON,ioos:station:LUMCON:101:1,2019-11-01T21:15:00Z,29.2533,-90.6633,16.48,11111222 
LUMCON,ioos:station:LUMCON:101:1,2019-11-01T21:30:00Z,29.2533,-90.6633,16.67,11111222 
LUMCON,ioos:station:LUMCON:101:1,2019-11-01T21:45:00Z,29.2533,-90.6633,19.69,11111222 
LUMCON,ioos:station:LUMCON:101:1,2019-11-01T22:00:00Z,29.2533,-90.6633,19.54,11111222 
LUMCON,ioos:station:LUMCON:101:1,2019-11-01T22:15:00Z,29.2533,-90.6633,18.64,11111222 
LUMCON,ioos:station:LUMCON:101:1,2019-11-01T22:30:00Z,29.2533,-90.6633,18.31,11111222 
LUMCON,ioos:station:LUMCON:101:1,2019-11-01T22:45:00Z,29.2533,-90.6633,19.53,11111222 
LUMCON,ioos:station:LUMCON:101:1,2019-11-01T23:00:00Z,29.2533,-90.6633,20.21,11111222 
LUMCON,ioos:station:LUMCON:101:1,2019-11-01T23:15:00Z,29.2533,-90.6633,21.96,11111222 
LUMCON,ioos:station:LUMCON:101:1,2019-11-01T23:30:00Z,29.2533,-90.6633,25.33,11111222 
LUMCON,ioos:station:LUMCON:101:1,2019-11-01T23:45:00Z,29.2533,-90.6633,23.9,11111222 
LUMCON,ioos:station:LUMCON:101:1,2019-11-02T00:00:00Z,29.2533,-90.6633,21.57,11111222 
LUMCON,ioos:station:LUMCON:101:1,2019-11-02T00:15:00Z,29.2533,-90.6633,22.24,11111222 
LUMCON,ioos:station:LUMCON:101:1,2019-11-02T00:30:00Z,29.2533,-90.6633,22.45,11111222 
LUMCON,ioos:station:LUMCON:101:1,2019-11-02T00:45:00Z,29.2533,-90.6633,19.46,11111222 
LUMCON,ioos:station:LUMCON:101:1,2019-11-02T01:00:00Z,29.2533,-90.6633,21.3,11111222 
LUMCON,ioos:station:LUMCON:101:1,2019-11-02T01:15:00Z,29.2533,-90.6633,20.59,11111222 
LUMCON,ioos:station:LUMCON:101:1,2019-11-02T01:30:00Z,29.2533,-90.6633,21.17,11111222 
LUMCON,ioos:station:LUMCON:101:1,2019-11-02T01:45:00Z,29.2533,-90.6633,22.83,11111222 
LUMCON,ioos:station:LUMCON:101:1,2019-11-02T02:00:00Z,29.2533,-90.6633,22.93,11111222 
LUMCON,ioos:station:LUMCON:101:1,2019-11-02T02:15:00Z,29.2533,-90.6633,20.95,11111222 
LUMCON,ioos:station:LUMCON:101:1,2019-11-02T02:30:00Z,29.2533,-90.6633,22.38,11111222 
LUMCON,ioos:station:LUMCON:101:1,2019-11-02T02:45:00Z,29.2533,-90.6633,24.18,11111222 
LUMCON,ioos:station:LUMCON:101:1,2019-11-02T03:00:00Z,29.2533,-90.6633,19.83,11111222 
LUMCON,ioos:station:LUMCON:101:1,2019-11-02T03:15:00Z,29.2533,-90.6633,21.22,11111222 
LUMCON,ioos:station:LUMCON:101:1,2019-11-02T03:30:00Z,29.2533,-90.6633,21.23,11111222 
LUMCON,ioos:station:LUMCON:101:1,2019-11-02T03:45:00Z,29.2533,-90.6633,20.28,11111222 
LUMCON,ioos:station:LUMCON:101:1,2019-11-02T04:00:00Z,29.2533,-90.6633,21.19,11111222 
LUMCON,ioos:station:LUMCON:101:1,2019-11-02T04:15:00Z,29.2533,-90.6633,24.25,11111222 
LUMCON,ioos:station:LUMCON:101:1,2019-11-02T04:30:00Z,29.2533,-90.6633,21.69,11111222 
LUMCON,ioos:station:LUMCON:101:1,2019-11-02T04:45:00Z,29.2533,-90.6633,22.46,11111222 
LUMCON,ioos:station:LUMCON:101:1,2019-11-02T05:00:00Z,29.2533,-90.6633,24.15,11111222 
LUMCON,ioos:station:LUMCON:101:1,2019-11-02T05:15:00Z,29.2533,-90.6633,20.51,11111222 
LUMCON,ioos:station:LUMCON:101:1,2019-11-02T05:30:00Z,29.2533,-90.6633,20.94,11111222 
LUMCON,ioos:station:LUMCON:101:1,2019-11-02T05:45:00Z,29.2533,-90.6633,20.43,11111222 
LUMCON,ioos:station:LUMCON:101:1,2019-11-02T06:00:00Z,29.2533,-90.6633,21.64,11111222 
LUMCON,ioos:station:LUMCON:101:1,2019-11-02T06:15:00Z,29.2533,-90.6633,21.76,11111222 
LUMCON,ioos:station:LUMCON:101:1,2019-11-02T06:30:00Z,29.2533,-90.6633,20.9,11111222 
LUMCON,ioos:station:LUMCON:101:1,2019-11-02T06:45:00Z,29.2533,-90.6633,21.79,11111222 
LUMCON,ioos:station:LUMCON:101:1,2019-11-02T07:00:00Z,29.2533,-90.6633,21.88,11111222 
LUMCON,ioos:station:LUMCON:101:1,2019-11-02T07:15:00Z,29.2533,-90.6633,23.9,11111222 
LUMCON,ioos:station:LUMCON:101:1,2019-11-02T07:30:00Z,29.2533,-90.6633,20.64,11111222 
LUMCON,ioos:station:LUMCON:101:1,2019-11-02T07:45:00Z,29.2533,-90.6633,20.57,11111222 
LUMCON,ioos:station:LUMCON:101:1,2019-11-02T08:00:00Z,29.2533,-90.6633,19.34,11111222 
LUMCON,ioos:station:LUMCON:101:1,2019-11-02T08:15:00Z,29.2533,-90.6633,19.08,11111222 
LUMCON,ioos:station:LUMCON:101:1,2019-11-02T08:30:00Z,29.2533,-90.6633,19.2,11111222 
LUMCON,ioos:station:LUMCON:101:1,2019-11-02T08:45:00Z,29.2533,-90.6633,20.04,11111222 
LUMCON,ioos:station:LUMCON:101:1,2019-11-02T09:00:00Z,29.2533,-90.6633,19.11,11111222 
LUMCON,ioos:station:LUMCON:101:1,2019-11-02T09:15:00Z,29.2533,-90.6633,18.29,11111222 
LUMCON,ioos:station:LUMCON:101:1,2019-11-02T09:30:00Z,29.2533,-90.6633,17.42,11111222 
LUMCON,ioos:station:LUMCON:101:1,2019-11-02T09:45:00Z,29.2533,-90.6633,16.98,11111222 
LUMCON,ioos:station:LUMCON:101:1,2019-11-02T10:00:00Z,29.2533,-90.6633,16.77,11111222 
LUMCON,ioos:station:LUMCON:101:1,2019-11-02T10:15:00Z,29.2533,-90.6633,16.26,11111222 
LUMCON,ioos:station:LUMCON:101:1,2019-11-02T10:30:00Z,29.2533,-90.6633,15.8,11111222 
LUMCON,ioos:station:LUMCON:101:1,2019-11-02T10:45:00Z,29.2533,-90.6633,15.1,11111222 
LUMCON,ioos:station:LUMCON:101:1,2019-11-02T11:00:00Z,29.2533,-90.6633,14.77,11111222 
LUMCON,ioos:station:LUMCON:101:1,2019-11-02T11:15:00Z,29.2533,-90.6633,14.6,11111222 
LUMCON,ioos:station:LUMCON:101:1,2019-11-02T11:30:00Z,29.2533,-90.6633,14.37,11111222 
LUMCON,ioos:station:LUMCON:101:1,2019-11-02T11:45:00Z,29.2533,-90.6633,14.53,11111222 
LUMCON,ioos:station:LUMCON:101:1,2019-11-02T12:00:00Z,29.2533,-90.6633,13.92,11111222 
LUMCON,ioos:station:LUMCON:101:1,2019-11-02T12:15:00Z,29.2533,-90.6633,13.47,11111222 
LUMCON,ioos:station:LUMCON:101:1,2019-11-02T12:30:00Z,29.2533,-90.6633,13.04,11111222 
LUMCON,ioos:station:LUMCON:101:1,2019-11-02T12:45:00Z,29.2533,-90.6633,12.65,11111222 
LUMCON,ioos:station:LUMCON:101:1,2019-11-02T13:00:00Z,29.2533,-90.6633,12.97,11111222 
LUMCON,ioos:station:LUMCON:101:1,2019-11-02T13:15:00Z,29.2533,-90.6633,12.31,11111222 
LUMCON,ioos:station:LUMCON:101:1,2019-11-02T13:30:00Z,29.2533,-90.6633,11.97,11111222 
LUMCON,ioos:station:LUMCON:101:1,2019-11-02T13:45:00Z,29.2533,-90.6633,12.36,11111222 
LUMCON,ioos:station:LUMCON:101:1,2019-11-02T14:00:00Z,29.2533,-90.6633,12.37,11111222 
LUMCON,ioos:station:LUMCON:101:1,2019-11-02T14:15:00Z,29.2533,-90.6633,12.26,11111222 
LUMCON,ioos:station:LUMCON:101:1,2019-11-02T14:30:00Z,29.2533,-90.6633,12.34,11111222 
LUMCON,ioos:station:LUMCON:101:1,2019-11-02T14:45:00Z,29.2533,-90.6633,11.93,11111222 
LUMCON,ioos:station:LUMCON:101:1,2019-11-02T15:00:00Z,29.2533,-90.6633,12.01,11111222 
LUMCON,ioos:station:LUMCON:101:1,2019-11-02T15:15:00Z,29.2533,-90.6633,12.13,11111222 
LUMCON,ioos:station:LUMCON:101:1,2019-11-02T15:30:00Z,29.2533,-90.6633,12.56,11111222 
LUMCON,ioos:station:LUMCON:101:1,2019-11-02T15:45:00Z,29.2533,-90.6633,11.97,11111222 
LUMCON,ioos:station:LUMCON:101:1,2019-11-02T16:00:00Z,29.2533,-90.6633,12.21,11111222 
LUMCON,ioos:station:LUMCON:101:1,2019-11-02T16:15:00Z,29.2533,-90.6633,12.52,11111222 
LUMCON,ioos:station:LUMCON:101:1,2019-11-02T16:30:00Z,29.2533,-90.6633,12.16,11111222 
LUMCON,ioos:station:LUMCON:101:1,2019-11-02T16:45:00Z,29.2533,-90.6633,12.82,11111222 
LUMCON,ioos:station:LUMCON:101:1,2019-11-02T17:00:00Z,29.2533,-90.6633,12.46,11111222 
LUMCON,ioos:station:LUMCON:101:1,2019-11-02T17:15:00Z,29.2533,-90.6633,12.66,11111222 
LUMCON,ioos:station:LUMCON:101:1,2019-11-02T17:30:00Z,29.2533,-90.6633,13.11,11111222 
LUMCON,ioos:station:LUMCON:101:1,2019-11-02T17:45:00Z,29.2533,-90.6633,13.59,11111222 
LUMCON,ioos:station:LUMCON:101:1,2019-11-02T18:00:00Z,29.2533,-90.6633,13.26,11111222 
LUMCON,ioos:station:LUMCON:101:1,2019-11-02T18:15:00Z,29.2533,-90.6633,13.48,11111222 
LUMCON,ioos:station:LUMCON:101:1,2019-11-02T18:30:00Z,29.2533,-90.6633,13.81,11111222 
LUMCON,ioos:station:LUMCON:101:1,2019-11-02T18:45:00Z,29.2533,-90.6633,13.91,11111222 
LUMCON,ioos:station:LUMCON:101:1,2019-11-02T19:00:00Z,29.2533,-90.6633,14.32,11111222 
LUMCON,ioos:station:LUMCON:101:1,2019-11-02T19:15:00Z,29.2533,-90.6633,14.63,11111222 
LUMCON,ioos:station:LUMCON:101:1,2019-11-02T19:30:00Z,29.2533,-90.6633,14.99,11111222 
LUMCON,ioos:station:LUMCON:101:1,2019-11-02T19:45:00Z,29.2533,-90.6633,15.14,11111222 
LUMCON,ioos:station:LUMCON:101:1,2019-11-02T20:00:00Z,29.2533,-90.6633,15.13,11111222 
LUMCON,ioos:station:LUMCON:101:1,2019-11-02T20:15:00Z,29.2533,-90.6633,15.3,11111222 
LUMCON,ioos:station:LUMCON:101:1,2019-11-02T20:30:00Z,29.2533,-90.6633,15.58,11111222 
LUMCON,ioos:station:LUMCON:101:1,2019-11-02T20:45:00Z,29.2533,-90.6633,15.6,11111222 
LUMCON,ioos:station:LUMCON:101:1,2019-11-02T21:00:00Z,29.2533,-90.6633,15.88,11111222 
LUMCON,ioos:station:LUMCON:101:1,2019-11-02T21:15:00Z,29.2533,-90.6633,15.94,11111222 
LUMCON,ioos:station:LUMCON:101:1,2019-11-02T21:30:00Z,29.2533,-90.6633,16.06,11111222 
LUMCON,ioos:station:LUMCON:101:1,2019-11-02T21:45:00Z,29.2533,-90.6633,16.98,11111222 
LUMCON,ioos:station:LUMCON:101:1,2019-11-02T22:00:00Z,29.2533,-90.6633,17.94,11111222 
LUMCON,ioos:station:LUMCON:101:1,2019-11-02T22:15:00Z,29.2533,-90.6633,23.08,11111222 
LUMCON,ioos:station:LUMCON:101:1,2019-11-02T22:30:00Z,29.2533,-90.6633,15.77,11111222 
LUMCON,ioos:station:LUMCON:101:1,2019-11-02T22:45:00Z,29.2533,-90.6633,16.44,11111222 
LUMCON,ioos:station:LUMCON:101:1,2019-11-02T23:00:00Z,29.2533,-90.6633,19.5,11111222 
LUMCON,ioos:station:LUMCON:101:1,2019-11-02T23:15:00Z,29.2533,-90.6633,17.58,11111222 
LUMCON,ioos:station:LUMCON:101:1,2019-11-02T23:30:00Z,29.2533,-90.6633,19.83,11111222 
LUMCON,ioos:station:LUMCON:101:1,2019-11-02T23:45:00Z,29.2533,-90.6633,24.86,11111222 
LUMCON,ioos:station:LUMCON:101:1,2019-11-03T00:00:00Z,29.2533,-90.6633,22.61,11111222 
LUMCON,ioos:station:LUMCON:101:1,2019-11-03T00:15:00Z,29.2533,-90.6633,20.15,11111222 
LUMCON,ioos:station:LUMCON:101:1,2019-11-03T00:30:00Z,29.2533,-90.6633,21.33,11111222 
LUMCON,ioos:station:LUMCON:101:1,2019-11-03T00:45:00Z,29.2533,-90.6633,20.69,11111222 
LUMCON,ioos:station:LUMCON:101:1,2019-11-03T01:00:00Z,29.2533,-90.6633,18.96,11111222 
LUMCON,ioos:station:LUMCON:101:1,2019-11-03T01:15:00Z,29.2533,-90.6633,20.32,11111222 
LUMCON,ioos:station:LUMCON:101:1,2019-11-03T01:30:00Z,29.2533,-90.6633,19.55,11111222 
LUMCON,ioos:station:LUMCON:101:1,2019-11-03T01:45:00Z,29.2533,-90.6633,21.56,11111222 
LUMCON,ioos:station:LUMCON:101:1,2019-11-03T02:00:00Z,29.2533,-90.6633,19.58,11111222 
LUMCON,ioos:station:LUMCON:101:1,2019-11-03T02:15:00Z,29.2533,-90.6633,18.91,11111222 
LUMCON,ioos:station:LUMCON:101:1,2019-11-03T02:30:00Z,29.2533,-90.6633,19.0,11111222 
LUMCON,ioos:station:LUMCON:101:1,2019-11-03T02:45:00Z,29.2533,-90.6633,22.55,11111222 
LUMCON,ioos:station:LUMCON:101:1,2019-11-03T03:00:00Z,29.2533,-90.6633,22.93,11111222 
LUMCON,ioos:station:LUMCON:101:1,2019-11-03T03:15:00Z,29.2533,-90.6633,18.58,11111222 
LUMCON,ioos:station:LUMCON:101:1,2019-11-03T03:30:00Z,29.2533,-90.6633,20.82,11111222 
LUMCON,ioos:station:LUMCON:101:1,2019-11-03T03:45:00Z,29.2533,-90.6633,18.33,11111222 
LUMCON,ioos:station:LUMCON:101:1,2019-11-03T04:00:00Z,29.2533,-90.6633,22.56,11111222 
LUMCON,ioos:station:LUMCON:101:1,2019-11-03T04:15:00Z,29.2533,-90.6633,21.7,11111222 
LUMCON,ioos:station:LUMCON:101:1,2019-11-03T04:30:00Z,29.2533,-90.6633,21.76,11111222 
LUMCON,ioos:station:LUMCON:101:1,2019-11-03T04:45:00Z,29.2533,-90.6633,22.15,11111222 
LUMCON,ioos:station:LUMCON:101:1,2019-11-03T05:00:00Z,29.2533,-90.6633,21.44,11111222 
LUMCON,ioos:station:LUMCON:101:1,2019-11-03T05:15:00Z,29.2533,-90.6633,23.46,11111222 
LUMCON,ioos:station:LUMCON:101:1,2019-11-03T05:30:00Z,29.2533,-90.6633,22.38,11111222 
LUMCON,ioos:station:LUMCON:101:1,2019-11-03T05:45:00Z,29.2533,-90.6633,21.72,11111222 
LUMCON,ioos:station:LUMCON:101:1,2019-11-03T06:00:00Z,29.2533,-90.6633,20.79,11111222 
LUMCON,ioos:station:LUMCON:101:1,2019-11-03T06:15:00Z,29.2533,-90.6633,21.15,11111222 
LUMCON,ioos:station:LUMCON:101:1,2019-11-03T06:30:00Z,29.2533,-90.6633,22.9,11111222 
LUMCON,ioos:station:LUMCON:101:1,2019-11-03T06:45:00Z,29.2533,-90.6633,19.12,11111222 
LUMCON,ioos:station:LUMCON:101:1,2019-11-03T07:00:00Z,29.2533,-90.6633,22.13,11111222 
LUMCON,ioos:station:LUMCON:101:1,2019-11-03T07:15:00Z,29.2533,-90.6633,21.79,11111222 
LUMCON,ioos:station:LUMCON:101:1,2019-11-03T07:30:00Z,29.2533,-90.6633,21.35,11111222 
LUMCON,ioos:station:LUMCON:101:1,2019-11-03T07:45:00Z,29.2533,-90.6633,22.97,11111222 
LUMCON,ioos:station:LUMCON:101:1,2019-11-03T08:00:00Z,29.2533,-90.6633,20.41,11111222 
LUMCON,ioos:station:LUMCON:101:1,2019-11-03T08:15:00Z,29.2533,-90.6633,22.27,11111222 
LUMCON,ioos:station:LUMCON:101:1,2019-11-03T08:30:00Z,29.2533,-90.6633,21.59,11111222 
LUMCON,ioos:station:LUMCON:101:1,2019-11-03T08:45:00Z,29.2533,-90.6633,20.72,11111222 
LUMCON,ioos:station:LUMCON:101:1,2019-11-03T09:00:00Z,29.2533,-90.6633,17.88,11111222 
LUMCON,ioos:station:LUMCON:101:1,2019-11-03T09:15:00Z,29.2533,-90.6633,17.59,11111222 
LUMCON,ioos:station:LUMCON:101:1,2019-11-03T09:30:00Z,29.2533,-90.6633,17.44,11111222 
LUMCON,ioos:station:LUMCON:101:1,2019-11-03T09:45:00Z,29.2533,-90.6633,17.31,11111222 
LUMCON,ioos:station:LUMCON:101:1,2019-11-03T10:00:00Z,29.2533,-90.6633,17.25,11111222 
LUMCON,ioos:station:LUMCON:101:1,2019-11-03T10:15:00Z,29.2533,-90.6633,17.23,11111222 
LUMCON,ioos:station:LUMCON:101:1,2019-11-03T10:30:00Z,29.2533,-90.6633,17.67,11111222 
LUMCON,ioos:station:LUMCON:101:1,2019-11-03T10:45:00Z,29.2533,-90.6633,18.26,11111222 
LUMCON,ioos:station:LUMCON:101:1,2019-11-03T11:00:00Z,29.2533,-90.6633,17.14,11111222 
LUMCON,ioos:station:LUMCON:101:1,2019-11-03T11:15:00Z,29.2533,-90.6633,17.0,11111222 
LUMCON,ioos:station:LUMCON:101:1,2019-11-03T11:30:00Z,29.2533,-90.6633,16.86,11111222 
LUMCON,ioos:station:LUMCON:101:1,2019-11-03T11:45:00Z,29.2533,-90.6633,16.91,11111222 
LUMCON,ioos:station:LUMCON:101:1,2019-11-03T12:00:00Z,29.2533,-90.6633,17.04,11111222 
LUMCON,ioos:station:LUMCON:101:1,2019-11-03T12:15:00Z,29.2533,-90.6633,18.64,11111222 
LUMCON,ioos:station:LUMCON:101:1,2019-11-03T12:30:00Z,29.2533,-90.6633,16.72,11111222 
LUMCON,ioos:station:LUMCON:101:1,2019-11-03T12:45:00Z,29.2533,-90.6633,16.67,11111222 
LUMCON,ioos:station:LUMCON:101:1,2019-11-03T13:00:00Z,29.2533,-90.6633,16.01,11111222 
LUMCON,ioos:station:LUMCON:101:1,2019-11-03T13:15:00Z,29.2533,-90.6633,15.19,11111222 
LUMCON,ioos:station:LUMCON:101:1,2019-11-03T13:30:00Z,29.2533,-90.6633,15.4,11111222 
LUMCON,ioos:station:LUMCON:101:1,2019-11-03T13:45:00Z,29.2533,-90.6633,14.58,11111222 
LUMCON,ioos:station:LUMCON:101:1,2019-11-03T14:00:00Z,29.2533,-90.6633,14.46,11111222 
LUMCON,ioos:station:LUMCON:101:1,2019-11-03T14:15:00Z,29.2533,-90.6633,14.4,11111222 
LUMCON,ioos:station:LUMCON:101:1,2019-11-03T14:30:00Z,29.2533,-90.6633,14.77,11111222 
LUMCON,ioos:station:LUMCON:101:1,2019-11-03T14:45:00Z,29.2533,-90.6633,14.8,11111222 
LUMCON,ioos:station:LUMCON:101:1,2019-11-03T15:00:00Z,29.2533,-90.6633,14.73,11111222 
LUMCON,ioos:station:LUMCON:101:1,2019-11-03T15:15:00Z,29.2533,-90.6633,15.03,11111222 
LUMCON,ioos:station:LUMCON:101:1,2019-11-03T15:30:00Z,29.2533,-90.6633,15.28,11111222 
LUMCON,ioos:station:LUMCON:101:1,2019-11-03T15:45:00Z,29.2533,-90.6633,15.73,11111222 
LUMCON,ioos:station:LUMCON:101:1,2019-11-03T16:00:00Z,29.2533,-90.6633,15.66,11111222 
LUMCON,ioos:station:LUMCON:101:1,2019-11-03T16:15:00Z,29.2533,-90.6633,15.53,11111222 
LUMCON,ioos:station:LUMCON:101:1,2019-11-03T16:30:00Z,29.2533,-90.6633,15.63,11111222 
LUMCON,ioos:station:LUMCON:101:1,2019-11-03T16:45:00Z,29.2533,-90.6633,15.25,11111222 
LUMCON,ioos:station:LUMCON:101:1,2019-11-03T17:00:00Z,29.2533,-90.6633,15.44,11111222 
LUMCON,ioos:station:LUMCON:101:1,2019-11-03T17:15:00Z,29.2533,-90.6633,15.57,11111222 
LUMCON,ioos:station:LUMCON:101:1,2019-11-03T17:30:00Z,29.2533,-90.6633,16.28,11111222 
LUMCON,ioos:station:LUMCON:101:1,2019-11-03T17:45:00Z,29.2533,-90.6633,16.35,11111222 
LUMCON,ioos:station:LUMCON:101:1,2019-11-03T18:00:00Z,29.2533,-90.6633,16.84,11111222 
LUMCON,ioos:station:LUMCON:101:1,2019-11-03T18:15:00Z,29.2533,-90.6633,16.31,11111222 
LUMCON,ioos:station:LUMCON:101:1,2019-11-03T18:30:00Z,29.2533,-90.6633,16.86,11111222 
LUMCON,ioos:station:LUMCON:101:1,2019-11-03T18:45:00Z,29.2533,-90.6633,19.44,11111222 
LUMCON,ioos:station:LUMCON:101:1,2019-11-03T19:00:00Z,29.2533,-90.6633,18.45,11111222 
LUMCON,ioos:station:LUMCON:101:1,2019-11-03T19:15:00Z,29.2533,-90.6633,17.93,11111222 
LUMCON,ioos:station:LUMCON:101:1,2019-11-03T19:30:00Z,29.2533,-90.6633,16.99,11111222 
LUMCON,ioos:station:LUMCON:101:1,2019-11-03T19:45:00Z,29.2533,-90.6633,17.7,11111222 
LUMCON,ioos:station:LUMCON:101:1,2019-11-03T20:00:00Z,29.2533,-90.6633,19.17,11111222 
LUMCON,ioos:station:LUMCON:101:1,2019-11-03T20:15:00Z,29.2533,-90.6633,19.33,11111222 
LUMCON,ioos:station:LUMCON:101:1,2019-11-03T20:30:00Z,29.2533,-90.6633,16.52,11111222 